FW0321 Weather Reports


time (UTC)temp
C
wind
direction
speed
KPH
gust
KPH
rain 1hr
cm
rain 24hr
cm
rain mn
cm
humidity
%
barometer
mb
20260506092653 6 197 6.4 11.3 0.00 0.23 0.58 67 1007.9
20260506091753 6 203 4.8 12.9 0.00 0.25 0.58 66 1007.9
20260506085953 6 198 6.4 11.3 0.00 0.25 0.58 70 1007.8
20260506085053 6 216 4.8 14.5 0.00 0.25 0.58 69 1007.7
20260506084153 6 214 3.2 6.4 0.00 0.25 0.58 71 1007.7
20260506083253 6 198 4.8 9.7 0.00 0.28 0.58 70 1007.7
20260506082353 6 220 3.2 8.0 0.00 0.30 0.58 70 1007.7
20260506081453 6 202 3.2 8.0 0.00 0.33 0.58 71 1007.5
20260506080553 5 181 3.2 9.7 0.00 0.36 0.58 71 1007.4
20260506072953 5 202 1.6 8.0 0.00 0.43 0.58 73 1007.2
20260506071153 5 202 1.6 6.4 0.00 0.43 0.58 75 1007.0
20260506070253 4 199 1.6 6.4 0.00 0.43 0.58 76 1006.9
20260506061753 3 210 3.2 8.0 0.00 0.43 0.58 76 1006.8
20260506060853 3 255 1.6 8.0 0.00 0.46 0.58 76 1006.6
20260506050553 3 335 0.0 6.4 0.00 0.46 0.58 81 1006.1
20260506043853 3 0 0.0 0.0 0.00 0.46 0.58 82 1005.9
20260506042953 3 36 0.0 1.6 0.00 0.46 0.58 83 1005.9
20260506041153 2 36 0.0 4.8 0.00 0.46 0.58 84 1005.7
20260506035353 2 37 0.0 1.6 0.00 0.46 0.58 84 1005.9
20260506033553 2 37 0.0 3.2 0.00 0.46 0.58 84 1005.5
20260506032653 2 37 0.0 1.6 0.00 0.46 0.58 84 1005.3
20260506031753 2 37 0.0 4.8 0.00 0.46 0.58 84 1005.3
20260506030852 2 37 0.0 1.6 0.00 0.46 0.58 84 1005.3
20260506025953 2 37 0.0 3.2 0.00 0.46 0.58 84 1005.2
20260506025052 2 37 1.6 4.8 0.00 0.48 0.58 85 1005.3
20260506024152 2 37 0.0 4.8 0.00 0.48 0.58 84 1005.1
20260506023252 2 36 1.6 4.8 0.00 0.48 0.58 85 1005.0
20260506022352 2 35 1.6 4.8 0.00 0.48 0.58 85 1005.0
20260506021452 2 0 0.0 0.0 0.00 0.48 0.58 85 1004.9
20260506015652 1 347 3.2 4.8 0.00 0.48 0.58 87 1004.8
20260506014752 1 347 1.6 4.8 0.00 0.51 0.58 87 1004.8
20260506012953 1 348 1.6 4.8 0.00 0.51 0.58 87 1004.6
20260506012052 1 347 1.6 4.8 0.00 0.51 0.58 86 1004.6
20260506011600 5 263 4.8 11.3 0.00 0.51 0.58 70 1004.7
20260505180852 5 259 4.8 9.7 0.00 0.58 0.58 70 1002.4
20260505175952 5 254 4.8 12.9 0.00 0.58 0.58 69 1002.3
20260505175051 5 240 4.8 9.7 0.00 0.58 0.58 69 1002.3
20260505173251 5 258 4.8 11.3 0.00 0.58 0.58 68 1002.3
20260505171451 5 259 6.4 12.9 0.00 0.58 0.58 67 1002.2
20260505170551 5 246 8.0 12.9 0.00 0.58 0.58 68 1002.2
20260505165651 5 251 6.4 12.9 0.00 0.58 0.58 68 1002.2
20260505164751 5 233 4.8 9.7 0.00 0.58 0.58 67 1002.1
20260505163851 6 198 3.2 8.0 0.00 0.58 0.58 66 1002.1
20260505162951 6 151 0.0 3.2 0.00 0.58 0.58 64 1002.1
20260505161151 7 150 1.6 4.8 0.00 0.58 0.58 63 1002.0
20260505160251 7 164 1.6 3.2 0.00 0.58 0.58 63 1002.0
20260505152651 6 234 3.2 6.4 0.00 0.58 0.58 64 1002.0
20260505151751 6 243 6.4 12.9 0.00 0.58 0.58 64 1001.9
20260505150851 6 233 6.4 12.9 0.00 0.58 0.58 64 1001.8
20260505140551 6 243 11.3 20.9 0.00 0.61 0.58 69 1001.8
20260505130251 5 244 9.7 17.7 0.00 0.64 0.58 79 1001.6
20260505124451 5 237 8.0 17.7 0.00 0.69 0.58 84 1001.6
20260505123551 4 241 8.0 17.7 0.00 0.71 0.58 87 1001.6
20260505122651 3 245 9.7 17.7 0.00 0.71 0.58 86 1001.5
20260505121751 3 252 12.9 20.9 0.00 0.71 0.58 87 1001.5
20260505120851 3 248 12.9 22.5 0.00 0.71 0.58 88 1001.5
20260505115951 3 247 14.5 25.7 0.03 0.71 0.58 89 1001.4
20260505115051 3 251 14.5 22.5 0.03 0.71 0.58 90 1001.5
20260505114151 2 248 11.3 20.9 0.03 0.71 0.58 92 1001.5
20260505112351 2 255 16.1 25.7 0.08 0.71 0.58 91 1001.3
20260505111451 2 254 25.7 40.2 0.10 0.71 0.58 90 1001.3
20260505110551 2 249 22.5 48.3 0.10 0.71 0.58 86 1001.1
20260505102050 2 248 16.1 30.6 0.15 0.66 0.51 89 1000.9
20260505100251 3 245 11.3 19.3 0.15 0.61 0.48 86 1000.5
20260505095351 3 244 11.3 22.5 0.13 0.61 0.43 88 1000.6
20260505094451 2 244 6.4 16.1 0.10 0.58 0.43 91 1000.6
20260505093551 2 263 4.8 11.3 0.05 0.56 0.41 91 1000.6